Boston College MA US WEATHERSTEM current weather conditions

sailwx.info

Wind from 198 at 2 knots gusting 4

Air temperature 17.6° C
Dewpoint 16.6° C

Last reported at 2020-Jul-07 08:00 UTC.
Time now 2020-Jul-07 08:38 UTC

Location: N 42°20' W 071°10'.
View on Google Maps.

See reports from other nearby stations

  
Tides and Currents Weather Stations Pressure Air Temp Water Temp Dewpoint Dewpoint Depression Visibility Wind Speed Wind Dir Waves Ship Positions
date/time (UTC)wind fromknots sea level pressurealtimeterstation pressurevisibilityair tempwater tempwave heightnotes
2020-Jul-07 08:00 198 2 gusting 4 17.6
2020-Jul-07 07:50 171 4 gusting 4 17.6
2020-Jul-07 07:40 177 2 gusting 3 17.5
2020-Jul-07 07:30 178 3 gusting 5 17.4
2020-Jul-07 07:20 174 0 gusting 4 17.4
2020-Jul-07 07:00 168 4 gusting 6 17.4
2020-Jul-07 06:50 17.3
2020-Jul-07 06:40 150 2 gusting 7 17.3
2020-Jul-07 06:30 154 5 gusting 9 17.3
2020-Jul-07 06:20 177 5 gusting 5 17.2
2020-Jul-07 06:00 17.1
2020-Jul-07 05:50 171 5 gusting 6 17.1
2020-Jul-07 05:40 184 1 gusting 5 17.1
2020-Jul-07 05:30 138 2 gusting 6 17.1
2020-Jul-07 05:20 151 3 gusting 4 17.1
2020-Jul-07 05:00 126 2 gusting 5 17.2
2020-Jul-07 04:50 142 1 gusting 5 17.3
2020-Jul-07 04:40 119 1 gusting 5 17.3
2020-Jul-07 04:30 161 0 gusting 4 17.3
2020-Jul-07 04:20 158 0 gusting 5 17.4
2020-Jul-07 04:00 026 2 gusting 6 17.6
2020-Jul-07 03:50 076 0 gusting 4 17.7
2020-Jul-07 03:40 088 1 gusting 5 17.8
2020-Jul-07 03:30 099 2 gusting 6 17.8
2020-Jul-07 03:20 043 1 gusting 6 18.0
2020-Jul-07 03:00 104 2 gusting 5 18.0
2020-Jul-07 02:50 109 1 gusting 3 18.1
2020-Jul-07 02:40 128 2 gusting 4 18.1
2020-Jul-07 02:30 062 1 gusting 3 18.2
2020-Jul-07 02:20 050 1 gusting 3 18.2
2020-Jul-07 02:00 085 2 gusting 3 18.3
2020-Jul-07 01:50 128 0 gusting 2 18.3
2020-Jul-07 01:40 134 1 gusting 3 18.3
2020-Jul-07 01:30 143 0 gusting 6 18.3
2020-Jul-07 01:20 153 2 gusting 5 18.4
2020-Jul-07 01:00 080 4 gusting 7 18.6
2020-Jul-07 00:50 082 3 gusting 7 18.8
2020-Jul-07 00:40 074 1 gusting 7 19.1
2020-Jul-07 00:30 041 4 gusting 6 19.3
2020-Jul-07 00:20 092 6 gusting 8 19.4
2020-Jul-07 00:00 040 5 gusting 8 19.9
2020-Jul-06 23:50 100 0 gusting 7 20.5
2020-Jul-06 23:40 045 3 gusting 6 20.6
2020-Jul-06 23:30 071 3 gusting 7 20.8
2020-Jul-06 23:20 065 3 gusting 6 21.2
2020-Jul-06 23:00 059 5 gusting 6 21.4
2020-Jul-06 22:50 061 3 gusting 7 21.4
2020-Jul-06 22:40 057 3 gusting 7 21.6
2020-Jul-06 22:30 046 3 gusting 7 21.6
2020-Jul-06 22:20 065 3 gusting 6 21.2
2020-Jul-06 22:00 049 5 gusting 7 21.2
2020-Jul-06 21:50 078 4 gusting 9 21.1
2020-Jul-06 21:40 355 2 gusting 8 21.2
2020-Jul-06 21:30 026 6 gusting 9 20.8
2020-Jul-06 21:20 036 3 gusting 10 20.8
2020-Jul-06 21:00 064 6 gusting 11 21.0
2020-Jul-06 20:50 073 6 gusting 12 20.9
2020-Jul-06 20:40 046 6 gusting 13 21.1
2020-Jul-06 20:30 034 7 gusting 13 21.2
2020-Jul-06 20:20 147 3 gusting 13 21.4
2020-Jul-06 20:00 348 7 gusting 13 21.7
2020-Jul-06 19:50 042 8 gusting 13 22.3
2020-Jul-06 19:40 115 6 gusting 12 22.4
2020-Jul-06 19:30 078 6 gusting 13 21.7
2020-Jul-06 19:20 059 9 gusting 13 21.7
2020-Jul-06 19:00 050 7 gusting 10 21.8
2020-Jul-06 18:50 036 3 gusting 10 22.1
2020-Jul-06 18:40 088 7 gusting 12 21.8
2020-Jul-06 18:30 018 4 gusting 11 21.4
2020-Jul-06 18:20 044 6 gusting 10 22.1
2020-Jul-06 18:00 086 11 gusting 12 21.9
2020-Jul-06 17:50 060 8 gusting 12 22.2
2020-Jul-06 17:40 082 7 gusting 12 22.4
2020-Jul-06 17:30 068 8 gusting 13 22.1
2020-Jul-06 17:20 038 10 gusting 13 22.6
2020-Jul-06 17:00 048 7 gusting 13 22.2
2020-Jul-06 16:50 032 10 gusting 12 22.7
2020-Jul-06 16:40 138 3 gusting 12 22.1
2020-Jul-06 16:30 062 8 gusting 12 22.5
2020-Jul-06 16:20 076 7 gusting 10 22.4
2020-Jul-06 16:00 031 6 gusting 11 21.6
2020-Jul-06 15:50 076 4 gusting 10 21.6
2020-Jul-06 15:40 051 7 gusting 11 21.4
2020-Jul-06 15:30 041 4 gusting 10 21.7
2020-Jul-06 15:20 085 3 gusting 9 22.0
2020-Jul-06 15:00 027 5 gusting 7 21.8
2020-Jul-06 14:50 022 5 gusting 9 22.0
2020-Jul-06 14:40 010 4 gusting 6 21.9
2020-Jul-06 14:30 030 2 gusting 7 21.2
2020-Jul-06 14:20 058 1 gusting 7 20.9
2020-Jul-06 14:00 355 6 gusting 10 20.3
2020-Jul-06 13:50 028 4 gusting 8 20.2
2020-Jul-06 13:40 042 4 gusting 10 20.1
2020-Jul-06 13:30 013 6 gusting 7 20.0
2020-Jul-06 13:20 009 1 gusting 6 19.5
2020-Jul-06 13:00 360 9 gusting 11 19.2
2020-Jul-06 12:50 040 5 gusting 12 19.3
2020-Jul-06 12:40 022 1 gusting 9 19.4
2020-Jul-06 12:30 351 8 gusting 9 19.5
2020-Jul-06 12:20 19.3
2020-Jul-06 12:00 304 3 gusting 7 18.9
2020-Jul-06 11:50 276 5 gusting 5 18.7
2020-Jul-06 11:40 328 2 gusting 8 18.7
2020-Jul-06 11:30 005 3 gusting 9 18.7
2020-Jul-06 11:20 343 6 gusting 10 18.7
2020-Jul-06 11:00 355 1 gusting 5 18.6
2020-Jul-06 10:50 344 1 gusting 3 18.6
2020-Jul-06 10:40 18.4
2020-Jul-06 10:30 339 1 gusting 5 18.3
2020-Jul-06 10:20 327 2 gusting 4 18.4
2020-Jul-06 10:00 296 0 gusting 4 18.3
2020-Jul-06 09:50 360 3 gusting 7 18.3
2020-Jul-06 09:40 355 3 gusting 8 18.3
2020-Jul-06 09:30 005 3 gusting 6 18.3
2020-Jul-06 09:20 360 2 gusting 6 18.2
2020-Jul-06 09:00 024 0 gusting 3 18.3
2020-Jul-06 08:50 18.4
2020-Jul-06 08:40 005 0 gusting 3 18.6
2020-Jul-06 08:30 005 0 gusting 2 18.6
2020-Jul-06 08:20 18.7
2020-Jul-06 08:00 010 1 gusting 5 18.7
2020-Jul-06 07:50 005 2 gusting 4 18.8
2020-Jul-06 07:40 350 4 gusting 4 18.8
2020-Jul-06 07:30 019 2 gusting 3 18.8
2020-Jul-06 07:20 019 1 gusting 3 18.8
2020-Jul-06 07:00 022 1 gusting 4 18.8
2020-Jul-06 06:50 011 2 gusting 5 18.7
2020-Jul-06 06:40 017 1 gusting 3 18.7
2020-Jul-06 06:30 018 0 gusting 2 18.6
2020-Jul-06 06:20 019 1 gusting 3 18.6
2020-Jul-06 06:00 065 0 gusting 3 18.6
2020-Jul-06 05:50 068 1 gusting 3 18.7
2020-Jul-06 05:40 023 0 gusting 3 18.8
2020-Jul-06 05:30 017 1 gusting 2 18.9
2020-Jul-06 05:20 074 0 gusting 4 18.8
2020-Jul-06 05:00 044 2 gusting 5 19.4
2020-Jul-06 04:50 086 2 gusting 7 19.6
2020-Jul-06 04:40 062 3 gusting 8 19.7
2020-Jul-06 04:30 123 1 gusting 6 19.8
2020-Jul-06 04:20 130 4 gusting 6 19.8
2020-Jul-06 04:00 013 0 gusting 4 19.9
2020-Jul-06 03:50 164 0 gusting 4 19.8
2020-Jul-06 03:40 131 4 gusting 6 20.1
2020-Jul-06 03:30 173 5 gusting 9 20.4
2020-Jul-06 03:20 138 1 gusting 6 20.8
2020-Jul-06 03:00 268 5 gusting 10 21.4
2020-Jul-06 02:50 273 6 gusting 22 21.5
2020-Jul-06 02:40 252 2 gusting 5 22.4
2020-Jul-06 02:30 090 1 gusting 10 22.6
2020-Jul-06 02:20 199 8 gusting 8 22.8
2020-Jul-06 02:00 171 6 gusting 15 22.9
2020-Jul-06 01:50 180 8 gusting 13 23.1
2020-Jul-06 01:40 138 9 gusting 12 23.2
2020-Jul-06 01:30 213 4 gusting 11 23.3
2020-Jul-06 01:20 160 4 gusting 11 23.5
2020-Jul-06 01:00 128 4 gusting 9 23.8
2020-Jul-06 00:50 165 0 gusting 8 24.0
2020-Jul-06 00:40 160 3 gusting 8 24.2
2020-Jul-06 00:30 154 3 gusting 6 24.4
2020-Jul-06 00:20 134 3 gusting 8 24.7
2020-Jul-06 00:00 157 0 gusting 6 25.3
2020-Jul-05 23:50 129 2 gusting 9 25.6
2020-Jul-05 23:40 055 3 gusting 5 25.9
2020-Jul-05 23:30 028 0 gusting 4 26.1
2020-Jul-05 23:20 045 1 gusting 6 26.2
2020-Jul-05 23:00 019 1 gusting 5 26.2
2020-Jul-05 22:50 092 2 gusting 7 25.6
2020-Jul-05 22:40 044 7 gusting 7 25.6
2020-Jul-05 22:30 049 5 gusting 10 25.5
2020-Jul-05 22:20 360 3 gusting 9 26.2
2020-Jul-05 22:00 355 3 gusting 7 25.7
2020-Jul-05 21:50 046 4 gusting 8 25.5
2020-Jul-05 21:40 038 6 gusting 8 25.4
2020-Jul-05 21:30 017 6 gusting 7 25.4
2020-Jul-05 21:20 015 6 gusting 6 25.3
2020-Jul-05 21:00 028 1 gusting 9 25.0
2020-Jul-05 20:50 041 4 gusting 10 25.2
2020-Jul-05 20:40 039 5 gusting 8 25.4
2020-Jul-05 20:30 079 7 gusting 10 25.9
2020-Jul-05 20:20 044 3 gusting 10 26.1
2020-Jul-05 20:00 111 6 gusting 10 26.1
2020-Jul-05 19:50 055 7 gusting 10 26.9
2020-Jul-05 19:40 067 8 gusting 11 26.8
2020-Jul-05 19:30 043 6 gusting 10 27.2
2020-Jul-05 19:20 050 6 gusting 8 27.6
2020-Jul-05 19:00 005 6 gusting 11 29.3
2020-Jul-05 18:50 304 2 gusting 5 31.4
2020-Jul-05 18:40 284 0 gusting 4 31.4
2020-Jul-05 18:30 30.2
2020-Jul-05 18:20 351 1 gusting 5 30.6
2020-Jul-05 18:00 251 0 gusting 4 30.8
2020-Jul-05 17:50 355 2 gusting 5 30.3
2020-Jul-05 17:40 205 1 gusting 8 30.1
2020-Jul-05 17:30 121 0 gusting 4 29.3
2020-Jul-05 17:20 009 3 gusting 5 29.9
2020-Jul-05 17:00 136 1 gusting 6 28.9
2020-Jul-05 16:50 107 0 gusting 6 28.4
2020-Jul-05 16:40 28.4
2020-Jul-05 16:30 005 0 gusting 3 28.2
2020-Jul-05 16:20 28.1
2020-Jul-05 16:00 275 3 gusting 6 26.7
2020-Jul-05 15:50 259 1 gusting 7 26.0
2020-Jul-05 15:40 210 1 gusting 6 25.9
2020-Jul-05 15:30 25.6
2020-Jul-05 15:20 24.8
2020-Jul-05 15:00 122 1 gusting 5 23.5
2020-Jul-05 14:50 215 3 gusting 6 22.7
2020-Jul-05 14:40 238 4 gusting 6 22.3
2020-Jul-05 14:30 235 1 gusting 6 22.2
2020-Jul-05 14:20 205 3 gusting 5 22.1
2020-Jul-05 14:00 229 4 gusting 6 21.9
2020-Jul-05 13:50 167 6 gusting 6 21.8
2020-Jul-05 13:40 213 0 gusting 6 21.9
2020-Jul-05 13:30 216 3 gusting 6 21.7
2020-Jul-05 13:20 240 4 gusting 6 21.6
2020-Jul-05 13:00 205 2 gusting 8 21.3
2020-Jul-05 12:50 195 7 gusting 9 21.2
2020-Jul-05 12:40 213 6 gusting 12 21.1
2020-Jul-05 12:30 203 4 gusting 8 20.9
2020-Jul-05 12:20 220 5 gusting 6 20.8
2020-Jul-05 12:00 184 2 gusting 7 20.4
2020-Jul-05 11:50 213 3 gusting 6 20.1
2020-Jul-05 11:40 191 3 gusting 6 19.8
2020-Jul-05 11:30 189 3 gusting 7 19.8
2020-Jul-05 11:20 205 3 gusting 7 19.5
2020-Jul-05 11:00 174 4 gusting 9 19.1
2020-Jul-05 10:50 173 6 gusting 10 18.9
2020-Jul-05 10:40 147 0 gusting 8 18.8
2020-Jul-05 10:30 169 5 gusting 9 18.7
2020-Jul-05 10:20 199 4 gusting 9 18.7
2020-Jul-05 10:00 200 6 gusting 8 18.6
2020-Jul-05 09:50 194 5 gusting 8 18.5
2020-Jul-05 09:30 176 6 gusting 8 18.4
2020-Jul-05 09:20 197 5 gusting 7 18.4
2020-Jul-05 09:00 182 4 gusting 6 18.3
2020-Jul-05 08:50 184 4 gusting 6 18.3
2020-Jul-05 08:40 193 2 gusting 7 18.3
2020-Jul-05 08:30 196 6 gusting 8 18.4
2020-Jul-05 08:20 201 3 gusting 10 18.3
2020-Jul-05 08:00 173 4 gusting 8 18.4